Showing default

COSMOS 2016, 19921

Orbit data source: Space-Track

COSMOS 2016, 19921 is a payload satellite owned by VMF (CIS) in LEO that was launched on Tue, 04 Apr 1989 UTC via a KOSMOS 11K65M launch vehicle from the Plesetsk Missile And Space Complex (PKMTR). Payload-class satellites include a variety of spacecraft equipped with specific instruments for various scientific and technological missions. These include communications satellites like Starlink; space stations such as the ISS; scientific satellites like the Hubble; Earth observation satellites from companies like Planet Labs, Umbra, and HawkEye 360; GPS; miniature CubeSats for education and research; and military/defense satellites.

Loading next visibility...
Identifier
19921, 1989-028A
Orbit
LEO
Country
Flag of CISCIS
Related business
Manufacturer
Omsk Av. Zav.
Mission
Defense Navigation
Bus & Motor
KAUR-1 11F627, Unknown motor
Mass
800 kg wet, 800 kg dry
Launch date (UTC)
1989-04-04 (37 years ago)
Launch vehicle
KOSMOS 11K65M
Launch site
Plesetsk Missile And Space Complex (PKMTR)
Object type
Payload
Rocket body
Debris
Shape & HBR
Cyl, 2.5 m
Radar Cross Section
9.978 m², Large (>1 m²)

Expand to show TLE details & history
Last TLE update: 12 hours ago

TLE from 12 hours ago
0 COSMOS 2016
1 19921U 89028A   26094.92131080  .00000066  00000-0  52567-4 0  9995
2 19921  82.9602 241.6713 0040365  37.9782  80.7303 13.75337401855800
Epoch: 2026-04-04T22:06Z
TLE epoch observation values (Epoch: 2026-04-04T22:06:41.253Z)
Latitude
60.16295°
Longitude
-115.60241°
Altitude
986.042 km
Speed
7.367 km/s
True Right ascension
03h 17m 12s
True Declination
60° 01' 08"
Sunlit
Object was in daylight at epoch
Visualization orbit readout
Latitude
Unknown
Longitude
Unknown
Altitude
Unknown
Speed
Unknown
Apparent Right ascension
Unknown
Apparent Declination
Unknown
Sunlit
N/A
Visualization observer readout
Local Sidereal Time
16:16:30
Azimuth
Unknown
Elevation
Unknown
Doppler factor
Unknown
Orbital elements
Apogee altitude
1,007.31 km
Perigee altitude
947.927 km
Semi-major axis
7,355.756 km
Eccentricity
0.00404
Inclination
82.9602°
RAAN
241.6713°
Arg. of periapsis
37.9782°
True anomaly
81.18717°
Mean anomaly
80.7303°
Eccentric anomaly
80.9587°
Mean motion
3.44035 °/min
Orbital period
104.64 mins
BSTAR
0.000052567
Loading maneuver chart data...
Computing Atmospheric mass density...
Loading historical data...
Loading historical data...
Loading historical data...
Loading historical data...
Loading historical data...
Loading historical data...
Loading historical data...
Other satellites on launch #28 in the year 1989 (1989-04-04 UTC)

Documentation

Showing up to 5 results
|